Weather in Manychskoe

Russia / Stavropol Krai     46°04′28″N   43°06′10″E
temp.,
°C
wind,
m/s
gust,
m/s
humid.,
%
clouds,
%
prec.,
mm/h
press.,
hPa
HPBL,
m
21 june, mon
mon2100:00+23e716335 0.0 1013588
03:00+22e615445 0.0 1013461
06:00+22e716511 0.0 1013498
09:00+29ese1015310 0.0 10121122
12:00+34ese1216180 0.0 10111986
15:00+35ese1114170 0.0 10112117
18:00+32ese913210 0.0 10111081
21:00+25ese5122719 0.0 1014294
22 june, tue
tue2200:00+23e61630100 0.0 1013449
03:00+23e5163517 0.0 1012452
06:00+23e516415 0.0 1012477
09:00+31ese1017280 0.0 10111443
12:00+36ese1115160 0.0 10102367
15:00+37ese1113150 0.0 10092565
18:00+34ese1014170 0.0 10101016
21:00+28ese61523100 0.0 1011402
23 june, wed
wed2300:00+26e51427100 0.0 1012347
03:00+24ene4103614 0.0 1012168
06:00+25e412471 0.0 1011415
09:00+30ese8113558 0.0 10111280
12:00+35ese792523 0.0 10101789
15:00+36se810271 0.0 10102183
18:00+34se610265 0.0 10111178
21:00+28se5122673 0.0 1013323
24 june, thu
thu2400:00+23ese483499 0.0 1013132
03:00+21ese4739100 0.0 1013115
06:00+22e3744100 0.0 1013169
09:00+28ene4535100 0.0 1013730
12:00+31e3627100 0.1 10131348
15:00+34e4721100 0.6 10111275
18:00+34ssw242675 0.0 1010217
21:00+29se61322100 0.0 1011341
25 june, fri
fri2500:00+24ese45310 0.0 101166
03:00+21sse34540 0.0 101162
06:00+22sw2261100 0.0 101279
09:00+28ese0139100 0.0 1012601
12:00+32ese242586 0.0 10111437
15:00+34w232344 0.1 10101980
18:00+31w5640100 0.6 1010400
21:00+26w51057100 0.6 1010209